This demonstration page uses our WeatherBlox Daily Observations layout. Learn more.

Left ArrowRight Arrow

38.83388, -104.82136

Hourly Observations for March 10, 2021

Temp ( °F °C ) Dew Point ( °F °C ) Humidity (%) Winds ( mph kmh ) Pressure ( in mb ) Visibility ( mi km ) Precip ( " mm )
12:58 am 00:58 Mostly Cloudy 39 3.7 19 -7 46 46 NNW 10 17 29.29 992 10 16 0.00 0.00
1:58 am 01:58 Mostly Clear 36 2.4 20 -6.8 51 51 NW 5 7 29.27 991 10 16 0.00 0.00
2:58 am 02:58 Mostly Clear 35 1.4 21 -6.1 58 58 NW 9 15 29.28 992 10 16 0.00 0.00
3:58 am 03:58 Mostly Clear 33 0.4 23 -5.2 66 66 Calm 29.27 991 10 16 0.00 0.00
4:58 am 04:58 Clear 34 1.1 21 -6.2 59 59 Calm 29.29 992 10 16 0.00 0.00
5:58 am 05:58 Mostly Clear 37 2.5 15 -9.6 41 41 S 14 22 29.27 991 10 16 0.00 0.00
6:58 am 06:58 Mostly Cloudy 38 3.4 16 -9 40 40 SW 3 6 29.32 993 10 16 0.00 0.00
7:03 am 07:03 Mostly Cloudy with Haze 37 3 18 -8 45 45 NNW 7 11 29.32 993 6 10 0.00 0.00
7:18 am 07:18 Mostly Cloudy 36 2 14 -10 41 41 NNW 10 17 29.31 992 10 16 0.00 0.00
7:21 am 07:21 Partly Cloudy 36 2 12 -11 38 38 W 16 26 29.32 993 10 16 0.00 0.00
7:22 am 07:22 Partly Cloudy 36 2 10 -12 35 35 NNW 14 22 29.31 992 10 16 0.00 0.00
7:24 am 07:24 Partly Cloudy 36 2 10 -12 35 35 N 14 22 29.32 993 10 16 0.00 0.00
7:25 am 07:25 Partly Cloudy 36 2 9 -13 32 32 ENE 13 20 29.30 992 10 16 0.00 0.00
7:26 am 07:26 Partly Cloudy 36 2 9 -13 32 32 S 14 22 29.32 993 10 16 0.00 0.00
7:46 am 07:46 Sunny 36 2 5 -15 27 27 W 15 24 29.30 992 10 16 0.00 0.00
7:47 am 07:47 Sunny 36 2 5 -15 27 27 SW 15 24 29.30 992 10 16 0.00 0.00
7:52 am 07:52 Sunny 36 2 5 -15 27 27 SW 14 22 29.30 992 10 16 0.00 0.00
7:53 am 07:53 Sunny 36 2 5 -15 27 27 WSW 12 19 29.29 992 10 16 0.00 0.00
7:54 am 07:54 Sunny 36 2 5 -15 27 27 WNW 15 24 29.31 992 10 16 0.00 0.00
7:58 am 07:58 Sunny 36 2.3 5 -14.8 27 27 WNW 22 35 29.30 992 10 16 0.00 0.00
7:59 am 07:59 Sunny 36 2 5 -15 27 27 W 16 26 29.31 992 10 16 0.00 0.00
8:01 am 08:01 Sunny 36 2 5 -15 27 27 WSW 16 26 29.31 992 10 16 0.00 0.00
8:02 am 08:02 Sunny 36 2 5 -15 27 27 SSW 13 20 29.31 992 10 16 0.00 0.00
8:26 am 08:26 Sunny 37 3 5 -15 26 26 N 13 20 29.29 992 10 16 0.00 0.00
8:27 am 08:27 Sunny 37 3 5 -15 26 26 NE 12 19 29.30 992 10 16 0.00 0.00
8:56 am 08:56 Sunny 37 3 3 -16 23 23 W 16 26 29.33 993 10 16 0.00 0.00
8:58 am 08:58 Sunny 38 3.1 2 -16.7 22 22 SSW 5 7 29.33 993 10 16 0.00 0.00
9:28 am 09:28 Sunny 37 3 0 -18 20 20 W 17 28 29.34 994 10 16 0.00 0.00
9:32 am 09:32 Sunny 37 3 0 -18 20 20 W 18 30 29.32 993 10 16 0.00 0.00
9:36 am 09:36 Sunny 39 4 0 -18 18 18 N 16 26 29.30 992 10 16 0.00 0.00
9:38 am 09:38 Sunny 39 4 0 -18 18 18 WNW 14 22 29.31 993 10 16 0.00 0.00
9:39 am 09:39 Sunny 39 4 0 -18 18 18 WSW 13 20 29.32 993 10 16 0.00 0.00
9:58 am 09:58 Sunny 40 4.4 -1 -18.4 17 17 NNW 10 17 29.31 993 10 16 0.00 0.00
10:02 am 10:02 Sunny 39 4 -2 -19 17 17 W 12 19 29.32 993 10 16 0.00 0.00
10:04 am 10:04 Sunny 39 4 -2 -19 17 17 W 14 22 29.34 994 10 16 0.00 0.00
10:06 am 10:06 Sunny 39 4 -2 -19 17 17 WSW 13 20 29.32 993 10 16 0.00 0.00
10:07 am 10:07 Sunny 39 4 -2 -19 17 17 WNW 15 24 29.33 993 10 16 0.00 0.00
10:09 am 10:09 Sunny 39 4 -2 -19 17 17 WSW 15 24 29.33 993 10 16 0.00 0.00
10:10 am 10:10 Sunny 39 4 -2 -19 17 17 S 13 20 29.33 993 10 16 0.00 0.00
10:15 am 10:15 Sunny 39 4 -2 -19 17 17 WNW 14 22 29.33 993 10 16 0.00 0.00
10:20 am 10:20 Sunny 39 4 -2 -19 17 17 W 12 19 29.33 993 10 16 0.00 0.00
10:21 am 10:21 Sunny 39 4 -2 -19 17 17 SW 15 24 29.34 994 10 16 0.00 0.00
10:22 am 10:22 Sunny 39 4 -2 -19 17 17 SSE 13 20 29.33 993 10 16 0.00 0.00
10:25 am 10:25 Sunny 39 4 -2 -19 17 17 WNW 17 28 29.33 993 10 16 0.00 0.00
10:26 am 10:26 Sunny 39 4 -2 -19 17 17 N 13 20 29.33 993 10 16 0.00 0.00
10:41 am 10:41 Sunny 39 4 -4 -20 16 16 NW 18 30 29.34 994 10 16 0.00 0.00
10:58 am 10:58 Sunny 43 6.2 -2 -18.9 15 15 E 7 11 29.34 994 10 16 0.00 0.00
11:03 am 11:03 Sunny 43 6 -2 -19 15 15 WNW 15 24 29.34 994 10 16 0.00 0.00
11:41 am 11:41 Sunny 43 6 -4 -20 13 13 S 13 20 29.37 995 10 16 0.00 0.00
11:42 am 11:42 Sunny 43 6 -4 -20 13 13 SW 13 20 29.37 995 10 16 0.00 0.00
11:58 am 11:58 Sunny 43 6.2 -4 -19.9 13 13 SSE 16 26 29.39 995 10 16 0.00 0.00
12:58 pm 12:58 Mostly Cloudy 42 5.5 -4 -20.2 14 14 NE 9 15 29.40 996 10 16 0.00 0.00
1:58 pm 13:58 Mostly Sunny 44 6.9 -2 -19 14 14 SE 13 20 29.40 996 10 16 0.00 0.00
2:19 pm 14:19 Sunny 45 7 -2 -19 14 14 E 13 20 29.42 996 10 16 0.00 0.00
2:39 pm 14:39 Mostly Sunny 41 5 -4 -20 14 14 NW 15 24 29.47 998 10 16 0.00 0.00
2:40 pm 14:40 Mostly Sunny 41 5 -4 -20 14 14 WSW 15 24 29.47 998 10 16 0.00 0.00
2:41 pm 14:41 Mostly Sunny 41 5 -6 -21 13 13 S 13 20 29.47 998 10 16 0.00 0.00
2:58 pm 14:58 Partly Cloudy 43 6.2 -6 -21.1 12 12 E 5 7 29.45 997 10 16 0.00 0.00
3:58 pm 15:58 Partly Cloudy 41 4.8 -5 -20.7 14 14 ENE 7 11 29.49 999 10 16 0.00 0.00
4:58 pm 16:58 Mostly Sunny 39 4.1 -7 -21.6 13 13 NNE 5 7 29.52 1000 10 16 0.00 0.00
5:58 pm 17:58 Sunny 38 3.1 -4 -20.2 16 16 N 6 9 29.56 1001 10 16 0.00 0.00
6:58 pm 18:58 Clear 36 2.4 -2 -18.7 19 19 NNW 10 17 29.60 1002 10 16 0.00 0.00
7:58 pm 19:58 Clear 37 2.5 -3 -19.5 18 18 WNW 9 15 29.63 1003 10 16 0.00 0.00
8:58 pm 20:58 Clear 34 1.3 -1 -18.4 22 22 Calm 29.64 1004 10 16 0.00 0.00
9:58 pm 21:58 Clear 36 2 1 -17.4 22 22 Calm 29.62 1003 10 16 0.00 0.00
10:58 pm 22:58 Clear 36 2 2 -16.6 24 24 WSW 3 6 29.60 1002 10 16 0.00 0.00
11:58 pm 23:58 Mostly Clear 30 -1.2 2 -16.6 30 30 SSW 12 19 29.66 1005 10 16 0.00 0.00

Powered by AerisWeather